Вернуться в каталог

STARLINK-37910

АктивенСвязьVLEO
NORAD 69961·PAYLOAD·🇺🇸 United States

Запущен Jul 9, 2026 с Cape Canaveral Space Force Station

Loading…

Ближайшие Пролёты (ближайшие 24 часа)

TLE

СвежийSource: CelesTrak SupGP

Эпоха: Sep 14, 2026, 21:29 UTC

1 69961C 26157U   26257.89562500 -.00006863  00000+0 -20278-3 0  2572
2 69961  53.1583   0.0887 0001240  81.7450 154.9778 15.34391191    12

Отслеживайте STARLINK-37910 в реальном времени с AllMySat

Download on the App Store